Location: *
(49.5667°N, 1.3667°W)
Time: 16:19:41
(UTC+00:00)

Cosmos 676 Rocket - Pass Details

Date: 20 September 2019
Orbit: 755 x 784 km, 74.0° (Epoch: 15 October)

Event Time Altitude Azimuth Distance (km) Brightness Sun altitude
Rises 19:30:01 0° 338° (NNW) 3,264 7.9 -13.8°
Reaches altitude 10° 19:32:28 10° 342° (NNW) 2,328 7.0 -14.2°
Maximum altitude 19:37:42 62° 63° (ENE) 867 4.1 -15.0°
Enters shadow 19:41:12 21° 139° (SE) 1,685 5.3 -15.5°
